When you browse on this site, cookies collect data to enhance your experience and personalize the content and advertising you see.
Visit our Privacy Policy to learn more. By continuing to use the site, you agree to this use of cookies and data.
  • In Germany
  • List of Countries
  • For 7 days
  • Water Temperature
  • Satellite Maps
  • Weather Map
  • Weather Widgets
  • user-avatar
    Login

    Hourly Weather Uige

    Today, 19 March, Tuesday

    Time Temperature Precipitation Wind Pressure Humidity
    00:00 +22°C° 0.1 mm 1 mps 690 mmHg 97%
    01:00 +22°C° 0 mm 1 mps 690 mmHg 98%
    02:00 +22°C° 0.4 mm 1 mps 690 mmHg 98%
    03:00 +22°C° 0.4 mm 1 mps 690 mmHg 98%
    04:00 +22°C° 0.4 mm 1 mps 690 mmHg 98%
    05:00 +22°C° 0.3 mm 1 mps 690 mmHg 97%
    06:00 +22°C° 0.3 mm 1 mps 690 mmHg 97%
    07:00 +23°C° 0.3 mm 1 mps 690 mmHg 96%
    08:00 +25°C° 0.2 mm 1 mps 691 mmHg 85%
    09:00 +28°C° 0.2 mm 1 mps 691 mmHg 73%
    10:00 +31°C° 0.2 mm 1 mps 692 mmHg 61%
    11:00 +33°C° 0.1 mm 1 mps 691 mmHg 55%
    12:00 +34°C° 0.1 mm 1 mps 691 mmHg 48%
    13:00 +34°C° 0.1 mm 0 mps 690 mmHg 41%
    14:00 +32°C° 0 mm 0 mps 690 mmHg 50%
    15:00 +32°C° 0 mm 1 mps 689 mmHg 58%
    16:00 +30°C° 0 mm 1 mps 688 mmHg 66%
    17:00 +28°C° 0.9 mm 1 mps 688 mmHg 72%
    18:00 +27°C° 0.9 mm 1 mps 688 mmHg 79%
    19:00 +25°C° 0.9 mm 1 mps 688 mmHg 86%
    20:00 +24°C° 4.4 mm 1 mps 689 mmHg 90%
    21:00 +24°C° 4.4 mm 2 mps 689 mmHg 93%
    22:00 +23°C° 4.4 mm 2 mps 690 mmHg 97%
    23:00 +23°C° 0.3 mm 2 mps 690 mmHg 97%

    Tomorrow, 20 March, Wednesday

    Time Temperature Precipitation Wind Pressure Humidity
    00:00 +23°C° 0.3 mm 2 mps 690 mmHg 98%
    01:00 +23°C° 0.3 mm 1 mps 690 mmHg 98%
    02:00 +22°C° 0 mm 1 mps 689 mmHg 97%
    03:00 +22°C° 0 mm 1 mps 689 mmHg 97%
    04:00 +22°C° 0 mm 1 mps 689 mmHg 96%
    05:00 +22°C° 0 mm 1 mps 689 mmHg 96%
    06:00 +22°C° 0 mm 1 mps 690 mmHg 95%
    07:00 +23°C° 0 mm 1 mps 690 mmHg 95%
    08:00 +24°C° 1.2 mm 1 mps 691 mmHg 92%
    09:00 +26°C° 1.2 mm 1 mps 691 mmHg 89%
    10:00 +28°C° 1.2 mm 1 mps 692 mmHg 85%
    11:00 +28°C° 1.8 mm 1 mps 691 mmHg 85%
    12:00 +28°C° 1.8 mm 1 mps 691 mmHg 85%
    13:00 +28°C° 1.8 mm 1 mps 690 mmHg 85%
    14:00 +27°C° 1.1 mm 2 mps 690 mmHg 89%
    15:00 +25°C° 1.1 mm 2 mps 689 mmHg 92%
    16:00 +23°C° 1.1 mm 2 mps 689 mmHg 96%
    17:00 +23°C° 0.6 mm 2 mps 689 mmHg 96%
    18:00 +22°C° 0.6 mm 1 mps 689 mmHg 97%
    19:00 +22°C° 0.6 mm 1 mps 690 mmHg 97%
    20:00 +22°C° 0.4 mm 1 mps 690 mmHg 97%
    21:00 +22°C° 0.4 mm 1 mps 690 mmHg 97%
    22:00 +20°C° 0.4 mm 0 mps 691 mmHg 97%
    23:00 +21°C° 0 mm 1 mps 690 mmHg 97%

    Day after tomorrow, 21 March, Thursday

    Time Temperature Precipitation Wind Pressure Humidity
    00:00 +21°C° 0 mm 1 mps 690 mmHg 97%
    01:00 +20°C° 0 mm 2 mps 689 mmHg 97%
    02:00 +20°C° 0 mm 2 mps 689 mmHg 96%
    03:00 +20°C° 0 mm 2 mps 689 mmHg 95%
    04:00 +20°C° 0 mm 2 mps 689 mmHg 94%
    05:00 +20°C° 0 mm 2 mps 689 mmHg 93%
    06:00 +20°C° 0 mm 2 mps 690 mmHg 92%
    07:00 +20°C° 0 mm 2 mps 690 mmHg 91%
    08:00 +24°C° 0 mm 2 mps 691 mmHg 82%
    09:00 +26°C° 0 mm 1 mps 692 mmHg 73%
    10:00 +29°C° 0 mm 1 mps 692 mmHg 64%
    11:00 +31°C° 0 mm 1 mps 692 mmHg 55%
    12:00 +33°C° 0 mm 1 mps 691 mmHg 47%
    13:00 +35°C° 0 mm 1 mps 691 mmHg 38%
    14:00 +33°C° 0 mm 1 mps 690 mmHg 45%
    15:00 +32°C° 0 mm 1 mps 689 mmHg 52%
    16:00 +31°C° 0 mm 1 mps 689 mmHg 59%
    17:00 +29°C° 0.1 mm 1 mps 689 mmHg 65%
    18:00 +27°C° 0.1 mm 1 mps 689 mmHg 71%
    19:00 +25°C° 0.1 mm 1 mps 689 mmHg 77%
    20:00 +24°C° 0 mm 1 mps 689 mmHg 79%
    21:00 +24°C° 0 mm 1 mps 690 mmHg 81%
    22:00 +23°C° 0 mm 1 mps 690 mmHg 83%
    23:00 +23°C° 0 mm 1 mps 690 mmHg 83%

    22 March, Friday

    Time Temperature Precipitation Wind Pressure Humidity
    00:00 +22°C° 0 mm 1 mps 689 mmHg 83%
    01:00 +22°C° 0 mm 1 mps 689 mmHg 83%
    02:00 +22°C° 0 mm 1 mps 689 mmHg 82%
    03:00 +22°C° 0 mm 1 mps 689 mmHg 82%
    04:00 +22°C° 0 mm 1 mps 688 mmHg 81%
    05:00 +23°C° 0 mm 1 mps 689 mmHg 81%
    06:00 +23°C° 0 mm 1 mps 689 mmHg 82%
    07:00 +23°C° 0 mm 1 mps 690 mmHg 82%
    08:00 +26°C° 0 mm 1 mps 691 mmHg 71%
    09:00 +29°C° 0 mm 1 mps 692 mmHg 61%
    10:00 +32°C° 0 mm 1 mps 692 mmHg 50%
    11:00 +34°C° 0 mm 1 mps 692 mmHg 46%
    12:00 +35°C° 0 mm 1 mps 691 mmHg 41%
    13:00 +36°C° 0 mm 1 mps 691 mmHg 37%
    14:00 +35°C° 0 mm 1 mps 690 mmHg 43%
    15:00 +33°C° 0 mm 1 mps 690 mmHg 48%
    16:00 +32°C° 0 mm 1 mps 689 mmHg 54%
    17:00 +30°C° 0.2 mm 1 mps 689 mmHg 63%
    18:00 +27°C° 0.2 mm 1 mps 689 mmHg 72%
    19:00 +25°C° 0.2 mm 1 mps 689 mmHg 81%
    20:00 +24°C° 0.7 mm 1 mps 690 mmHg 86%
    21:00 +24°C° 0.7 mm 1 mps 690 mmHg 91%
    22:00 +23°C° 0.7 mm 1 mps 690 mmHg 97%
    23:00 +22°C° 0 mm 1 mps 690 mmHg 97%

    23 March, Saturday

    Time Temperature Precipitation Wind Pressure Humidity
    00:00 +22°C° 0 mm 1 mps 690 mmHg 96%
    01:00 +22°C° 0 mm 1 mps 689 mmHg 96%
    02:00 +22°C° 0 mm 1 mps 689 mmHg 97%
    03:00 +22°C° 0 mm 1 mps 689 mmHg 98%
    04:00 +23°C° 0 mm 1 mps 689 mmHg 99%
    05:00 +23°C° 0 mm 1 mps 690 mmHg 98%
    06:00 +23°C° 0 mm 1 mps 690 mmHg 98%
    07:00 +24°C° 0 mm 1 mps 691 mmHg 97%
    08:00 +26°C° 0.3 mm 1 mps 691 mmHg 85%
    09:00 +29°C° 0.3 mm 1 mps 692 mmHg 73%
    10:00 +32°C° 0.3 mm 1 mps 693 mmHg 61%
    11:00 +33°C° 0.2 mm 1 mps 692 mmHg 55%
    12:00 +35°C° 0.2 mm 1 mps 691 mmHg 49%
    13:00 +36°C° 0.2 mm 1 mps 691 mmHg 43%
    14:00 +34°C° 0 mm 1 mps 690 mmHg 51%
    15:00 +32°C° 0 mm 1 mps 689 mmHg 59%
    16:00 +30°C° 0 mm 1 mps 689 mmHg 67%
    17:00 +28°C° 3.4 mm 2 mps 689 mmHg 76%
    18:00 +26°C° 3.4 mm 2 mps 689 mmHg 86%
    19:00 +24°C° 3.4 mm 2 mps 689 mmHg 95%
    20:00 +24°C° 3.4 mm 2 mps 690 mmHg 96%
    21:00 +24°C° 3.4 mm 1 mps 690 mmHg 96%
    22:00 +23°C° 3.4 mm 1 mps 691 mmHg 97%
    23:00 +23°C° 0.5 mm 1 mps 690 mmHg 97%

    24 March, Sunday

    Time Temperature Precipitation Wind Pressure Humidity
    00:00 +23°C° 0.5 mm 1 mps 690 mmHg 98%
    01:00 +23°C° 0.5 mm 1 mps 689 mmHg 98%
    02:00 +23°C° 0 mm 1 mps 689 mmHg 98%
    03:00 +22°C° 0 mm 1 mps 689 mmHg 98%
    04:00 +22°C° 0 mm 1 mps 689 mmHg 99%
    05:00 +23°C° 0 mm 1 mps 690 mmHg 98%
    06:00 +23°C° 0 mm 1 mps 690 mmHg 98%
    07:00 +23°C° 0 mm 1 mps 691 mmHg 98%
    08:00 +25°C° 0 mm 1 mps 691 mmHg 90%
    09:00 +26°C° 0 mm 1 mps 691 mmHg 82%
    10:00 +28°C° 0 mm 1 mps 692 mmHg 74%
    11:00 +29°C° 0.7 mm 1 mps 691 mmHg 71%
    12:00 +30°C° 0.7 mm 1 mps 690 mmHg 69%
    13:00 +31°C° 0.7 mm 1 mps 690 mmHg 66%
    14:00 +30°C° 0.8 mm 1 mps 689 mmHg 72%
    15:00 +29°C° 0.8 mm 1 mps 689 mmHg 78%
    16:00 +28°C° 0.8 mm 1 mps 688 mmHg 83%
    17:00 +27°C° 0.1 mm 1 mps 689 mmHg 86%
    18:00 +26°C° 0.1 mm 1 mps 689 mmHg 90%
    19:00 +24°C° 0.1 mm 1 mps 689 mmHg 93%
    20:00 +24°C° 1.7 mm 1 mps 689 mmHg 95%
    21:00 +23°C° 1.7 mm 1 mps 690 mmHg 96%
    22:00 +23°C° 1.7 mm 1 mps 690 mmHg 98%
    23:00 +23°C° 0.6 mm 1 mps 690 mmHg 98%
    Show more